Regional Weather Roundup
Issued by NWS Green Bay, WI

Home | Current Version | Previous Version | Graphics & Text | Print | Product List | Glossary Off
Versions: 1 2 3 4 5 6 7 8 9 10 11 12 13 14 15 16 17 18 19 20 21 22 23 24 25 26 27 28 29 30 31 32 33 34 35 36 37 38 39 40 41 42 43 44 45 46 47 48 49 50

000
ASUS43 KGRB 031800
RWRGRB

NORTH-CENTRAL AND NORTHEAST WISCONSIN REGIONAL WEATHER ROUNDUP
NATIONAL WEATHER SERVICE GREEN BAY WI
100 PM CDT WED JUN 03 2015

WIZ005-009-010>012-018-019-031900-
NORTH CENTRAL WISCONSIN

CITY           SKY/WX    TMP DP  RH WIND       PRES   REMARKS
IRONWOOD       CLOUDY    70  55  60 S9        29.88S
MANITOWISH WTR NOT AVBL
ARBOR VITAE    NOT AVBL
EAGLE RIVER    NOT AVBL
LAND O LAKES   NOT AVBL
RHINELANDER    SUNNY     72  52  49 SW12G21   29.96F
PHILLIPS       NOT AVBL
ANTIGO         NOT AVBL
TOMAHAWK       NOT AVBL
MERRILL        NOT AVBL
$$

WIZ013-073-031900-
NORTHEAST WISCONSIN

CITY           SKY/WX    TMP DP  RH WIND       PRES   REMARKS
IRON MOUNTAIN  SUNNY     75  51  43 S16G26    29.97F
MARINETTE      SUNNY     70  54  56 SE14      30.00F
$$

WIZ017-030-035>037-045-031900-
CENTRAL WISCONSIN

CITY           SKY/WX    TMP DP  RH WIND       PRES   REMARKS
MEDFORD        NOT AVBL
WAUSAU         MOSUNNY   73  54  51 S16       29.94F
MOSINEE        MOSUNNY   70  55  60 S14G22    29.98S
MARSHFIELD       N/A     72  55  55 S14       29.95F
WISC RAPIDS      N/A     75  53  46 S9        29.96F
STEVENS POINT  NOT AVBL
WAUPACA        NOT AVBL
SHAWANO        NOT AVBL
CLINTONVILLE   MOSUNNY   72  50  46 S13G21    29.98F
$$

WIZ038-039-048-051-031900-
FOX VALLEY

CITY           SKY/WX    TMP DP  RH WIND       PRES   REMARKS
NWS GREEN BAY  MOSUNNY   75  50  41 S16G22    30.00F
APPLETON       MOSUNNY   68  52  56 SE13G18   30.01F
OSHKOSH        MOSUNNY   75  53  46 SE12G21   30.00F
FOND DU LAC    MOSUNNY   72  54  53 SE14      30.00F
$$

WIZ022-050-052-031900-
EAST CENTRAL WISCONSIN

CITY           SKY/WX    TMP DP  RH WIND       PRES   REMARKS
STURGEON BAY   SUNNY     64  52  63 S17       30.06F
MANITOWOC      NOT AVBL
SHEBOYGAN      SUNNY     66  53  63 S14       30.05F
$$

LMZ563-521-522-541>543-031900-
LAKESHORE

STATION/POSITION TIME  TEMP    WIND        PRES    VSBY  WAVE
                       AIR SEA DIR/SP/G                  HT/PER
                 (UTC) (F)     (DEG/KT/KT) (MB)    (MI)  (FT/S)
SHEBOYGAN LKSHOR 1700   48     160/ 12/ 12 1018.7F
KEWAUNEE LKSHORE 1700   49     180/ 11/ 12 1017.4F
ALGOMA MARINA    1724          200/ 11/ 13   N/A
NORTHPORT PIER   1700   56     150/ 11/ 15 1017.3F
N MID LAKE BUOY  1650   43 37  200/  8/  8 1019.0S         1/ 3
CHAMBERS ISLAND  1700   67     150/  6/ 17 1016.9F
MENOMINEE LKSHOR 1700   60     130/  9/  9 1017.3F
$$


USA.gov is the U.S. government's official web portal to all federal, state and local government web resources and services.